Flag for U.S.A. Weather past 2 weeks in Midway, Midway Atoll, U.S.A.

Now
77 °F

Overcast.


Feels Like: 79 °F
Forecast: 74 / 82 °F
Wind: 3 mph from Northeast

Location: Midway Island Naval Air Facility

Current Time: Oct 25, 2014 at 6:42:44 PM

Latest Report: Oct 25, 2014 at 5:56 PM


Visibility: 10 mi

Pressure: 30.91 "Hg

Humidity: 74%

Dew point: 68 °F

Location of MidwayLocation

Historic Weather in Midway — Graph

°F

Midway temperature yesterday

Maximum temperature yesterday: 86 °F (at 10:56 AM)
Minimum temperature yesterday: 75 °F (at 5:35 AM)
Average temperature yesterday: 80 °F

Past Weeks' High & Low Weather Summary

 TemperatureHumidityPressure
High90 °F (Oct 14, 10:25 AM)100% (Oct 19, 6:17 AM)31.00 "Hg (Oct 19, 6:17 AM)
Low73 °F (Oct 20, 5:56 AM)56% (Oct 16, 12:56 PM)28.05 "Hg (Oct 11, 12:56 AM)
Average80 °F81%30.20 "Hg
* Reported Oct 10 4:56 PM — Oct 25 4:56 PM, Midway, Weather by CustomWeather, © 2014

Note: Actual official high and low records may vary slightly from our data, if they occured in-between our weather recording intervals... More about our weather records

Advertising

Midway weather history for previous 24 hours

 ConditionsComfort  
Time TempWeatherWind HumidityBarometerVisibility
4:56 PM
Oct 25
78 °FOvercast.5 mph69%30.89 "Hg10 mi
3:56 PM78 °FMostly cloudy.3 mph72%30.88 "Hg10 mi
2:56 PM78 °FOvercast.8 mph74%30.87 "Hg10 mi
1:56 PM78 °FMostly cloudy.5 mph82%30.87 "Hg10 mi
1:37 PM79 °FMore clouds than sun.8 mph79%29.97 "Hg10 mi
1:25 PM77 °FCloudy.No wind89%29.98 "Hg10 mi
12:56 PM74 °FLight rain. More clouds than sun.No wind90%30.89 "Hg10 mi
12:30 PM73 °FFog.No wind94%30.00 "Hg3 mi
12:03 PM73 °FFog.No wind94%30.01 "Hg1 mi
12:01 PM73 °FFog.5 mph94%30.01 "Hg1 mi
10:56 AM81 °FBroken clouds.10 mph71%30.92 "Hg10 mi
9:56 AM82 °FPassing clouds.7 mph67%30.91 "Hg10 mi
8:56 AM82 °FSunny.No wind65%30.92 "Hg10 mi
7:56 AM79 °FPassing clouds.No wind71%30.90 "Hg10 mi
6:56 AM75 °FPartly sunny.8 mph79%30.89 "Hg10 mi
5:56 AM75 °FPassing clouds.5 mph79%30.87 "Hg10 mi
4:56 AM76 °FPassing clouds.6 mph77%30.86 "Hg10 mi
3:56 AM76 °FPassing clouds.9 mph79%30.85 "Hg10 mi
3:18 AM75 °FPassing clouds.8 mph83%29.96 "Hg10 mi
2:56 AM76 °FPassing clouds.6 mph82%30.86 "Hg10 mi
1:56 AM77 °FClear.8 mph79%30.87 "Hg10 mi
12:56 AM77 °FPassing clouds.7 mph79%30.87 "Hg10 mi
11:56 PM
Oct 24
77 °FPassing clouds.5 mph76%30.89 "Hg10 mi
10:56 PM77 °FClear.3 mph79%30.89 "Hg10 mi
9:56 PM78 °FPassing clouds.7 mph77%30.89 "Hg10 mi
8:56 PM78 °FClear.7 mph79%30.89 "Hg10 mi
7:56 PM78 °FClear.No wind77%30.88 "Hg10 mi
6:56 PM78 °FPassing clouds.6 mph79%30.86 "Hg10 mi
Weather by CustomWeather, © 2014

See weather overviewHow to use our weather pages